This is the latest recevied weather packets stored in our database for station/object SR6WXJG. If no packets are shown the sender has not sent any weather packets the latest 10 day(s).
| Time | Temp. | Humidity | Pressure | Rain* | Wind** | Luminosity | Snow |
|---|---|---|---|---|---|---|---|
| 1777641509 | 20° C | 35% | 1028 hPa | 0 mm | - | - | - |
| 1777640609 | 19.44° C | 39% | 1028 hPa | 0 mm | - | - | - |
| 1777639708 | 19.44° C | 39% | 1028 hPa | 0 mm | - | - | - |
| 1777638808 | 19.44° C | 39% | 1028 hPa | 0 mm | - | - | - |
| 1777637907 | 18.89° C | 36% | 1028 hPa | 0 mm | - | - | - |
| 1777637007 | 18.89° C | 41% | 1028 hPa | 0 mm | - | - | - |
| 1777636107 | 18.33° C | 41% | 1028 hPa | 0 mm | - | - | - |
| 1777635207 | 18.33° C | 38% | 1029 hPa | 0 mm | - | - | - |
| 1777634306 | 18.33° C | 39% | 1029 hPa | 0 mm | - | - | - |
| 1777633406 | 17.78° C | 43% | 1029 hPa | 0 mm | - | - | - |
| 1777632505 | 17.78° C | 44% | 1029 hPa | 0 mm | - | - | - |
| 1777631605 | 17.78° C | 44% | 1029 hPa | 0 mm | - | - | - |
| 1777630705 | 17.22° C | 42% | 1030 hPa | 0 mm | - | - | - |
| 1777629805 | 16.67° C | 47% | 1029 hPa | 0 mm | - | - | - |
| 1777628904 | 16.67° C | 47% | 1029 hPa | 0 mm | - | - | - |
| 1777628004 | 16.67° C | 48% | 1029 hPa | 0 mm | - | - | - |
| 1777627104 | 16.11° C | 46% | 1030 hPa | 0 mm | - | - | - |
| 1777626203 | 15.56° C | 51% | 1029 hPa | 0 mm | - | - | - |
| 1777625303 | 15.56° C | 51% | 1029 hPa | 0 mm | - | - | - |
| 1777624403 | 15° C | 51% | 1029 hPa | 0 mm | - | - | - |
| 1777623502 | 14.44° C | 49% | 1030 hPa | 0 mm | - | - | - |
| 1777622602 | 13.89° C | 55% | 1029 hPa | 0 mm | - | - | - |
| 1777621702 | 13.89° C | 56% | 1029 hPa | 0 mm | - | - | - |
| 1777620801 | 13.33° C | 57% | 1029 hPa | 0 mm | - | - | - |
| 1777619901 | 11.67° C | 56% | 1030 hPa | 0 mm | - | - | - |
* Rain latest hour (hover to see other rain measurements)
** Current wind speed in m/s (hover to see current wind gust speed)